Location: Salillas
(41.9950°N, 0.2228°W)
Time: 02:47:37
(UTC+00:00)

Cosmos 1242 Rocket - Pass Details

Date: 29 March 2020
Orbit: 449 x 486 km, 81.2° (Epoch: 31 May)

Event Time Altitude Azimuth Distance (km) Brightness Sun altitude
Rises 18:55:17 0° 343° (NNW) 2,466 6.6 -6.7°
Reaches altitude 10° 18:57:25 10° 336° (NNW) 1,590 5.7 -7.0°
Maximum altitude 19:00:42 42° 265° (W) 663 3.9 -7.6°
Drops below altitude 10° 19:04:00 10° 193° (SSW) 1,589 5.2 -8.2°
Sets 19:06:08 0° 186° (S) 2,463 6.1 -8.6°
